[[{"header":{"parameterUnit":"m.s-1","parameterCategory":1,"la1":30.2991,"la2":30.254,"lo1":-89.0895,"lo2":-89.0444,"dy":0.0017,"dx":0.0017,"nx":28,"ny":28,"refTime":"2023-09-23T09:00:00:Z","depth":0,"parameterNumber":2,"parameterNumberName":"U-component_of_WINDS"},"data":[0,0,0,0,0,0,0,0,0,0,0,0,0,0,0,0,0,0,0,0,0,0,0,0,0,0,0,0,0,0,0,0,0,0,0,0,0,0,0,0,0,0,0,0,0,0,0,0,0,0,0,0,0,0,0,0,0,0,-1.333,-1.333,0,-1.3289,-1.3288,-1.3288,-1.3231,-1.323,-1.3229,-1.3228,-1.3184,-1.3183,-1.3183,0,0,0,0,0,0,0,0,0,0,0,0,0,-1.336,-1.336,-1.333,-1.333,-1.3329,-1.3289,-1.3288,-1.3288,-1.3231,-1.323,-1.3229,-1.3228,-1.3184,-1.3183,-1.3183,0,0,0,0,0,0,0,0,0,0,0,0,0,-1.3336,-1.336,-1.333,-1.3296,-1.3293,-1.3289,-1.3288,-1.3287,-1.3231,-1.323,-1.3228,-1.3227,-1.3184,-1.3183,-1.3183,-1.3209,0,0,-1.3182,-1.3181,0,0,0,0,0,0,0,0,-1.3337,-1.3335,-1.3302,-1.3298,-1.3294,-1.3263,-1.3282,-1.3261,-1.3232,-1.3254,-1.3228,-1.3226,-1.3211,-1.3208,-1.3204,-1.3207,-1.3205,-1.3181,-1.3181,-1.3181,-1.3181,0,0,0,0,0,0,0,-1.3339,-1.3336,-1.3314,-1.3301,-1.3297,-1.3283,-1.3278,-1.3278,-1.3241,-1.3252,-1.3248,-1.3244,-1.3209,-1.3204,-1.3202,-1.3204,-1.3181,-1.3181,-1.3181,-1.3181,-1.3229,-1.323,0,0,0,0,0,0,-1.3346,-1.3338,-1.3315,-1.3312,-1.3313,-1.3283,-1.3278,-1.3275,-1.3241,-1.3235,-1.3245,-1.3242,-1.3206,-1.3203,-1.32,-1.323,-1.3181,-1.3181,-1.318,-1.3227,-1.3229,-1.3231,0,0,0,0,0,0,-1.3347,-1.3344,-1.3317,-1.3324,-1.3319,-1.3284,-1.3282,-1.3275,-1.327,-1.3236,-1.3229,-1.3247,-1.3204,-1.3201,-1.3208,-1.3228,-1.318,-1.318,-1.3225,-1.3228,-1.323,-1.3289,0,0,0,0,0,0,-1.3348,-1.3345,-1.3354,-1.3325,-1.3319,-1.3325,-1.3283,-1.3275,-1.327,-1.3264,-1.3236,-1.323,-1.3203,-1.3209,-1.3207,-1.3226,-1.318,-1.3223,-1.3226,-1.3229,-1.3285,-1.3293,-1.3299,0,0,0,0,0,-1.3349,-1.3371,-1.3355,-1.3352,-1.333,-1.3326,-1.3323,-1.3292,-1.3271,-1.3281,-1.3259,-1.3231,-1.3226,-1.321,-1.3208,-1.3227,-1.3222,-1.3226,-1.3229,-1.3281,-1.3291,-1.3299,0,0,0,0,0,0,-1.3403,-1.3367,-1.3348,-1.3362,-1.3348,-1.3316,-1.3327,-1.3303,-1.3294,-1.3289,-1.3251,-1.3245,-1.3257,-1.3242,-1.3225,-1.3251,-1.322,-1.3223,-1.326,-1.3269,-1.3276,-1.328,-1.3179,0,0,0,0,0,-1.3417,-1.3417,-1.3385,-1.34,-1.3394,-1.3362,-1.3359,-1.3337,-1.332,-1.3314,-1.3293,-1.3277,-1.3273,-1.327,-1.3263,-1.3283,-1.3276,-1.3295,-1.3302,-1.3308,-1.3312,-1.3323,-1.3331,-1.3242,-1.3242,-1.3242,0,0,-1.3444,-1.3425,-1.3427,-1.341,-1.3397,-1.3398,-1.3357,-1.3359,-1.336,-1.3314,-1.332,-1.3304,-1.3284,-1.3298,-1.3303,-1.3286,-1.3335,-1.3313,-1.3318,-1.3318,-1.3327,-1.3335,-1.3343,-1.3244,-1.3244,-1.3244,0,0,-1.3496,-1.3481,-1.3493,-1.3481,-1.3461,-1.344,-1.3443,-1.3416,-1.3404,-1.341,-1.3376,-1.3376,-1.3368,-1.3356,-1.3349,-1.3399,-1.3373,-1.3398,-1.3437,-1.3448,-1.3455,-1.3461,-1.348,-1.3487,-1.3402,-1.3402,-1.3402,0,-1.3533,-1.3533,-1.3501,-1.3507,-1.3501,-1.3461,-1.3473,-1.3463,-1.3442,-1.3439,-1.3421,-1.3412,-1.3396,-1.3407,-1.342,-1.3415,-1.3418,-1.3401,-1.3456,-1.3462,-1.3467,-1.3485,-1.3492,-1.3405,-1.3405,-1.3404,-1.3404,0,-1.358,-1.3582,-1.3593,-1.3576,-1.3572,-1.358,-1.355,-1.355,-1.3529,-1.351,-1.3517,-1.3497,-1.3487,-1.3488,-1.3466,-1.3497,-1.3487,-1.3463,-1.3431,-1.348,-1.3496,-1.3502,-1.341,-1.3408,-1.3408,-1.3407,0,0,-1.3663,-1.363,-1.3635,-1.3628,-1.3605,-1.3605,-1.3612,-1.3603,-1.3604,-1.3592,-1.3598,-1.3594,-1.3572,-1.3564,-1.3542,-1.3551,-1.3595,-1.3526,-1.3525,-1.3541,-1.3629,-1.3648,-1.3656,-1.3578,-1.3579,-1.358,-1.3631,0,-1.3711,-1.3722,-1.3695,-1.3713,-1.3715,-1.3678,-1.3685,-1.3672,-1.3655,-1.3654,-1.3635,-1.3633,-1.3604,-1.3599,-1.3608,-1.3588,-1.3612,-1.3584,-1.3583,-1.3584,-1.359,-1.3664,-1.3683,-1.3732,-1.3637,-1.3638,-1.3639,0,-1.3768,-1.376,-1.3779,-1.3757,-1.3756,-1.3763,-1.3754,-1.3753,-1.3738,-1.3725,-1.3718,-1.3693,-1.3699,-1.3668,-1.3677,-1.3659,-1.3657,-1.3648,-1.3649,-1.3648,-1.3614,-1.3666,-1.3747,-1.3755,-1.3648,-1.3647,-1.3647,0,-1.3828,-1.3822,-1.3833,-1.3828,-1.3802,-1.3808,-1.3797,-1.3781,-1.3778,-1.377,-1.3768,-1.3761,-1.3757,-1.3752,-1.3726,-1.3705,-1.3739,-1.3705,-1.3729,-1.373,-1.3737,-1.3737,-1.382,-1.3735,-1.3735,-1.3735,-1.3735,0,-1.3884,-1.3897,-1.386,-1.3867,-1.3882,-1.385,-1.3865,-1.3851,-1.3837,-1.3841,-1.3809,-1.3813,-1.3777,-1.3778,-1.3757,-1.3769,-1.3767,-1.3757,-1.3752,-1.3761,-1.3762,-1.3759,-1.3755,-1.3737,-1.3737,-1.3736,-1.3736,0,-1.3954,-1.3929,-1.3939,-1.3915,-1.3909,-1.3921,-1.39,-1.3906,-1.3888,-1.3893,-1.3893,-1.3864,-1.3864,-1.3837,-1.383,-1.3816,-1.3837,-1.3825,-1.3843,-1.3839,-1.3864,-1.3863,-1.3949,-1.3959,-1.3868,-1.3869,-1.3869,0,-1.3991,-1.4001,-1.3978,-1.3979,-1.3971,-1.3972,-1.397,-1.394,-1.3939,-1.3924,-1.3932,-1.3929,-1.3925,-1.3926,-1.3905,-1.39,-1.3888,-1.3918,-1.3887,-1.3896,-1.3889,-1.389,-1.3891,-1.3925,-1.3926,-1.3927,-1.3928,0,-1.4061,-1.405,-1.4047,-1.4042,-1.4041,-1.4035,-1.4027,-1.4029,-1.3997,-1.3997,-1.3997,-1.3994,-1.3989,-1.3987,-1.3979,-1.3968,-1.3943,-1.3938,-1.3944,-1.3953,-1.3963,-1.3959,-1.3862,-1.3936,-1.3935,-1.3935,-1.3934,-1.3934,-1.4117,-1.4124,-1.411,-1.411,-1.4101,-1.4095,-1.41,-1.4084,-1.4083,-1.4077,-1.4059,-1.4062,-1.4049,-1.4036,-1.4028,-1.403,-1.4014,-1.4022,-1.4024,-1.4026,-1.4032,-1.3963,-1.4028,-1.4028,-1.4028,-1.4027,-1.4027,0,-1.4186,-1.4176,-1.4176,-1.4166,-1.4167,-1.4144,-1.4135,-1.4136,-1.414,-1.413,-1.4127,-1.4128,-1.4126,-1.4106,-1.4103,-1.4108,-1.4097,-1.4109,-1.4108,-1.4106,-1.4045,-1.4041,-1.4118,-1.4118,-1.4118,-1.4118,-1.4118,-1.4118,-1.4222,-1.4234,-1.4221,-1.423,-1.4219,-1.4223,-1.4219,-1.4214,-1.4206,-1.4209,-1.4208,-1.4195,-1.4181,-1.4177,-1.4175,-1.4169,-1.417,-1.4185,-1.4176,-1.4119,-1.411,-1.4102,-1.4098,-1.4185,-1.4185,-1.4236,-1.4237,-1.4237]},{"header":{"parameterUnit":"m.s-1","parameterCategory":1,"la1":30.2991,"la2":30.254,"lo1":-89.0895,"lo2":-89.0444,"dy":0.0017,"dx":0.0017,"nx":28,"ny":28,"refTime":"2023-09-23T09:00:00:Z","depth":0,"parameterNumber":3,"parameterNumberName":"V-component_of_WINDS"},"data":[0,0,0,0,0,0,0,0,0,0,0,0,0,0,0,0,0,0,0,0,0,0,0,0,0,0,0,0,0,0,0,0,0,0,0,0,0,0,0,0,0,0,0,0,0,0,0,0,0,0,0,0,0,0,0,0,0,0,2.7077,2.7077,0,2.7045,2.7045,2.7045,2.702,2.702,2.702,2.702,2.6987,2.6986,2.6986,0,0,0,0,0,0,0,0,0,0,0,0,0,2.7115,2.7114,2.7077,2.7077,2.7076,2.7046,2.7045,2.7045,2.7021,2.702,2.702,2.702,2.6987,2.6986,2.6986,0,0,0,0,0,0,0,0,0,0,0,0,0,2.7092,2.7114,2.7077,2.706,2.7059,2.7046,2.7045,2.7045,2.7021,2.702,2.702,2.702,2.6987,2.6986,2.6985,2.6986,0,0,2.6982,2.6982,0,0,0,0,0,0,0,0,2.7094,2.7091,2.7063,2.7062,2.7059,2.7037,2.7046,2.7025,2.7021,2.7035,2.702,2.7019,2.7004,2.7001,2.6996,2.6985,2.6983,2.6982,2.6982,2.6981,2.6981,0,0,0,0,0,0,0,2.7095,2.7092,2.7064,2.7063,2.7061,2.7054,2.7051,2.7042,2.7022,2.7034,2.7032,2.7029,2.7003,2.6997,2.6995,2.6983,2.6982,2.6982,2.6981,2.6981,2.6969,2.6969,0,0,0,0,0,0,2.71,2.7094,2.7065,2.7064,2.7076,2.7054,2.705,2.7044,2.7022,2.7018,2.7029,2.7028,2.6999,2.6996,2.6994,2.6992,2.6981,2.698,2.698,2.6969,2.6969,2.6969,0,0,0,0,0,0,2.71,2.7097,2.7067,2.7078,2.7074,2.7053,2.7047,2.7044,2.7038,2.7018,2.7014,2.7027,2.6999,2.6995,2.6988,2.6991,2.698,2.6979,2.6968,2.6969,2.6969,2.699,0,0,0,0,0,0,2.7102,2.7098,2.7098,2.7078,2.7073,2.7062,2.7048,2.7043,2.7037,2.7035,2.7015,2.7012,2.6998,2.699,2.6987,2.6989,2.6978,2.6968,2.6968,2.6969,2.6989,2.6991,2.6992,0,0,0,0,0,2.7103,2.7105,2.7098,2.7095,2.7073,2.7062,2.7059,2.7043,2.7037,2.7037,2.7024,2.7012,2.6991,2.6989,2.6986,2.6988,2.6968,2.6968,2.6969,2.6988,2.699,2.6992,0,0,0,0,0,0,2.7126,2.7103,2.7094,2.709,2.7078,2.7058,2.7057,2.7047,2.7036,2.7035,2.7016,2.7011,2.7006,2.6996,2.6995,2.6987,2.6978,2.6978,2.6993,2.6995,2.6997,2.6999,2.6978,0,0,0,0,0,2.7131,2.7124,2.7104,2.7102,2.7096,2.7078,2.7073,2.7061,2.7048,2.7043,2.7029,2.7016,2.7007,2.7001,2.6991,2.6987,2.6982,2.6987,2.6989,2.6991,2.699,2.6987,2.6988,2.6971,2.6971,2.6971,0,0,2.714,2.7126,2.7123,2.7106,2.7096,2.7088,2.7074,2.7067,2.7061,2.7042,2.7034,2.7023,2.7008,2.7002,2.6999,2.6994,2.6994,2.6991,2.6993,2.6992,2.6987,2.6989,2.699,2.6972,2.6972,2.6972,0,0,2.7153,2.7143,2.714,2.7129,2.7113,2.7101,2.71,2.7081,2.7073,2.7065,2.705,2.7043,2.7027,2.7016,2.7008,2.7016,2.7005,2.7014,2.7024,2.702,2.7021,2.7022,2.7024,2.7025,2.7014,2.7014,2.7014,0,2.7167,2.7156,2.7139,2.7133,2.7125,2.7108,2.7104,2.7095,2.7076,2.7071,2.7066,2.7044,2.7033,2.7024,2.7026,2.702,2.7018,2.7016,2.7023,2.7023,2.7024,2.7026,2.7027,2.7015,2.7015,2.7015,2.7015,0,2.7173,2.7165,2.7164,2.7147,2.7139,2.7134,2.7117,2.7111,2.71,2.7088,2.708,2.7065,2.7051,2.7048,2.7038,2.7037,2.7034,2.7026,2.7017,2.7027,2.7028,2.7029,2.7017,2.7016,2.7016,2.7016,0,0,2.7199,2.7172,2.7172,2.7164,2.7144,2.7138,2.7132,2.7118,2.7113,2.7101,2.7095,2.7081,2.7073,2.7064,2.7053,2.705,2.7056,2.7042,2.7041,2.7044,2.7053,2.7058,2.7059,2.7049,2.7049,2.7049,2.7053,0,2.7208,2.7196,2.7181,2.7174,2.7166,2.7149,2.7144,2.7131,2.712,2.7111,2.7098,2.7088,2.7079,2.7073,2.707,2.7056,2.7057,2.7056,2.7041,2.7041,2.7045,2.706,2.7066,2.7072,2.7054,2.7054,2.7054,0,2.7217,2.7206,2.7198,2.7179,2.7175,2.717,2.7156,2.7148,2.7133,2.7125,2.7115,2.7103,2.7094,2.7086,2.7074,2.7073,2.7067,2.7059,2.7059,2.7056,2.7048,2.7057,2.7073,2.7073,2.7055,2.7055,2.7055,0,2.7236,2.7219,2.7211,2.7205,2.7182,2.7179,2.717,2.7155,2.7147,2.7135,2.7129,2.7116,2.7109,2.7099,2.7082,2.7078,2.7072,2.7063,2.7064,2.7064,2.7062,2.7063,2.7077,2.706,2.706,2.706,2.706,0,2.7247,2.7243,2.7219,2.7215,2.7209,2.7192,2.7186,2.7175,2.7162,2.7154,2.7139,2.7132,2.7111,2.7102,2.7089,2.708,2.7077,2.707,2.7066,2.7071,2.7072,2.7066,2.7064,2.706,2.706,2.706,2.706,0,2.7267,2.7251,2.7242,2.7221,2.7216,2.7213,2.7195,2.7189,2.7177,2.7168,2.7164,2.7145,2.7133,2.7116,2.7099,2.709,2.7083,2.7078,2.7088,2.7085,2.7087,2.7087,2.7097,2.7097,2.7081,2.7082,2.7082,0,2.7274,2.7271,2.725,2.7244,2.7235,2.7225,2.7217,2.72,2.7192,2.7175,2.7171,2.7158,2.7146,2.7128,2.7112,2.7098,2.7092,2.7097,2.709,2.7094,2.7091,2.7091,2.709,2.7098,2.7098,2.7098,2.7099,0,2.7289,2.7282,2.7271,2.7258,2.7249,2.7238,2.7226,2.7221,2.7201,2.7193,2.7181,2.7172,2.7154,2.7141,2.7125,2.7115,2.7103,2.7101,2.71,2.7104,2.711,2.7106,2.7091,2.7101,2.71,2.71,2.71,2.71,2.7302,2.7298,2.7282,2.7271,2.726,2.7249,2.7242,2.7229,2.7219,2.7203,2.7193,2.7181,2.7165,2.7143,2.7133,2.7122,2.7118,2.7117,2.7117,2.7117,2.7118,2.7112,2.712,2.7119,2.7119,2.7119,2.7119,0,2.7315,2.7304,2.7294,2.7278,2.7269,2.7259,2.7245,2.7238,2.7227,2.7214,2.7203,2.7188,2.7175,2.7158,2.7143,2.7138,2.7132,2.7135,2.7134,2.7132,2.7123,2.7125,2.714,2.714,2.714,2.714,2.714,2.714,2.7321,2.7312,2.7303,2.7289,2.7277,2.7266,2.7258,2.7248,2.7237,2.7221,2.721,2.7199,2.7184,2.7168,2.7155,2.715,2.7145,2.7149,2.7143,2.7135,2.7133,2.7131,2.7132,2.7148,2.7148,2.7152,2.7152,2.7152]}]]